Погода в Хшануве

Польша     50°07′44″N   19°24′07″E
темп.,
°C
ветер,
м/с
пор.,
м/с
влажн.,
%
обл.,
%
осадки,
мм/ч
давл.,
гПа
погр.,
м
27 октября, ср
ср2723:00+8зюз386497 0.0 1025274
02:00+5зюз257628 0.0 102683
05:00+6юз2675100 0.0 1026131
08:00+5юз238275 0.0 102766
11:00+11зюз476696 0.0 1027433
14:00+13зюз4656100 0.0 1025759
17:00+11зюз3768100 0.0 1025194
20:00+8зюз288179 0.0 1026162
28 октября, чт
чт2823:00+7зюз23848 0.0 102747
02:00+7юз2485100 0.0 102664
05:00+6юз228432 0.0 102624
08:00+6ююз118116 0.0 102710
11:00+12ю12555 0.0 1026249
14:00+15юв23466 0.0 1025469
17:00+12вюв226225 0.0 102416
20:00+9вюв23725 0.0 102436
29 октября, пт
пт2923:00+8вюв22745 0.0 102420
02:00+7вюв22785 0.0 102314
05:00+7вюв11795 0.0 102210
08:00+7юв22775 0.0 102212
11:00+13ююв23505 0.0 1020233
14:00+16ююв224161 0.0 1019386
17:00+12вюв115768 0.0 101811
20:00+10вюв226398 0.0 101724
30 октября, сб
сб3023:00+9ююв226797 0.0 101814
02:00+8ююв225610 0.0 101710
05:00+7ююв22572 0.0 101812
08:00+6ю11603 0.0 101910
11:00+12юз23460 0.0 1020252
14:00+15ююз24420 0.0 1019442
17:00+12в11580 0.0 101910
20:00+10в11620 0.0 101910
31 октября, вс
вс3123:00+9юв22665 0.0 101928
02:00+9юв35675 0.0 101779
04:00+9вюв386838 0.0 1015131
07:00+9юв31165100 0.0 1013191
10:00+13ю395199 0.0 1011348
13:00+15ю2449100 0.0 1010400
16:00+13ю1365100 0.0 101079
19:00+12ююв2372100 0.1 101192